This demonstration page uses our WeatherBlox Daily Observations layout. Learn more.

Hourly Observations for June 29, 2020

Temp ( °F °C ) Dew Point ( °F °C ) Humidity (%) Winds ( mph kmh ) Pressure ( in mb ) Visibility ( mi km ) Precip ( " mm )
12:15 am 00:15 Cloudy 77 25 70 21 79 79 W 5 7 29.79 1009 10 16.0934 0 0
12:35 am 00:35 Cloudy 77 25 70 21 79 79 WNW 6 9 29.8 1009 10 16.0934 0 0
12:55 am 00:55 Mostly Cloudy 77 25 70 21 79 79 WNW 7 11 29.8 1009 10 16.0934 0 0
1:15 am 01:15 Partly Cloudy 75 24 70 21 83 83 WNW 7 11 29.81 1009 10 16.0934 0 0
1:35 am 01:35 Partly Cloudy 75 24 70 21 83 83 NW 7 11 29.81 1009 10 16.0934 0 0
1:55 am 01:55 Partly Cloudy 75 24 68 20 78 78 NW 9 15 29.82 1010 10 16.0934 0 0
2:15 am 02:15 Partly Cloudy 75 24 68 20 78 78 NW 7 11 29.82 1010 10 16.0934 0 0
2:35 am 02:35 Partly Cloudy 77 25 68 20 74 74 NNW 5 7 29.81 1010 10 16.0934 0 0
2:55 am 02:55 Partly Cloudy 73 23 68 20 83 83 NNW 6 9 29.82 1010 10 16.0934 0 0
3:15 am 03:15 Partly Cloudy 73 23 68 20 83 83 NW 12 19 29.81 1009 10 16.0934 0 0
3:35 am 03:35 Clear 73 23 68 20 83 83 NW 12 19 29.82 1010 10 16.0934 0 0
3:55 am 03:55 Clear 73 23 68 20 83 83 WNW 10 17 29.82 1010 10 16.0934 0 0
4:15 am 04:15 Clear 72 22 68 20 88 88 WNW 9 15 29.83 1010 10 16.0934 0 0
4:35 am 04:35 Clear 72 22 68 20 88 88 WNW 8 13 29.83 1010 10 16.0934 0 0
4:55 am 04:55 Clear 72 22 68 20 88 88 NW 9 15 29.83 1010 10 16.0934 0 0
5:15 am 05:15 Clear 72 22 68 20 88 88 NW 7 11 29.84 1010 10 16.0934 0 0
5:35 am 05:35 Clear 70 21 68 20 94 94 NW 6 9 29.84 1010 10 16.0934 0 0
5:55 am 05:55 Sunny 70 21 68 20 94 94 NW 5 7 29.85 1011 10 16.0934 0 0
6:15 am 06:15 Sunny 70 21 66 19 88 88 NNW 7 11 29.86 1011 10 16.0934 0 0
6:35 am 06:35 Sunny 70 21 66 19 88 88 N 8 13 29.87 1012 10 16.0934 0 0
6:55 am 06:55 Sunny 72 22 66 19 83 83 N 7 11 29.88 1012 10 16.0934 0 0
7:15 am 07:15 Sunny 72 22 66 19 83 83 N 7 11 29.89 1012 10 16.0934 0 0
7:35 am 07:35 Sunny 73 23 66 19 78 78 N 8 13 29.9 1012 10 16.0934 0 0
7:55 am 07:55 Sunny 73 23 64 18 74 74 N 10 17 29.9 1012 10 16.0934 0 0
8:15 am 08:15 Sunny 75 24 64 18 69 69 N 9 15 29.91 1013 10 16.0934 0 0
8:35 am 08:35 Sunny 77 25 66 19 69 69 N 10 17 29.91 1013 10 16.0934 0 0
8:55 am 08:55 Sunny 77 25 66 19 69 69 NNW 8 13 29.91 1013 10 16.0934 0 0
9:15 am 09:15 Sunny 77 25 66 19 69 69 NNW 9 15 29.91 1013 10 16.0934 0 0
9:35 am 09:35 Sunny 79 26 66 19 65 65 NNW 9 15 29.91 1013 10 16.0934 0 0
9:55 am 09:55 Sunny 79 26 66 19 65 65 N 9 15 29.91 1013 10 16.0934 0 0
10:15 am 10:15 Sunny 79 26 66 19 65 65 NNW 8 13 29.92 1013 10 16.0934 0 0
10:35 am 10:35 Sunny 79 26 66 19 65 65 N 7 11 29.92 1013 10 16.0934 0 0
10:55 am 10:55 Sunny 81 27 66 19 62 62 N 7 11 29.91 1013 10 16.0934 0 0
11:15 am 11:15 Partly Cloudy 81 27 64 18 58 58 NNE 10 17 29.91 1013 10 16.0934 0 0
11:35 am 11:35 Sunny 81 27 64 18 58 58 N 9 15 29.91 1013 10 16.0934 0 0
11:55 am 11:55 Sunny 81 27 66 19 62 62 NNW 13 20 29.9 1013 10 16.0934 0 0
12:15 pm 12:15 Sunny 82 28 68 20 62 62 NNW 9 15 29.91 1013 10 16.0934 0 0
12:35 pm 12:35 Sunny 82 28 64 18 55 55 N 13 20 29.9 1013 10 16.0934 0 0
12:55 pm 12:55 Partly Cloudy 82 28 64 18 55 55 N 9 15 29.89 1012 10 16.0934 0 0
1:15 pm 13:15 Partly Cloudy 84 29 64 18 51 51 N 10 17 29.89 1012 10 16.0934 0 0
1:35 pm 13:35 Partly Cloudy 84 29 64 18 51 51 NNW 13 20 29.89 1012 10 16.0934 0 0
1:55 pm 13:55 Partly Cloudy 86 30 64 18 49 49 N 10 17 29.89 1012 10 16.0934 0 0
2:15 pm 14:15 Partly Cloudy 86 30 64 18 49 49 N 14 22 29.89 1012 10 16.0934 0 0
2:35 pm 14:35 Partly Cloudy 86 30 63 17 46 46 N 9 15 29.89 1012 10 16.0934 0 0
2:55 pm 14:55 Partly Cloudy 86 30 64 18 49 49 NNW 15 24 29.88 1012 10 16.0934 0 0
3:15 pm 15:15 Partly Cloudy 86 30 64 18 49 49 NW 14 22 29.88 1012 10 16.0934 0 0
3:35 pm 15:35 Partly Cloudy 88 31 64 18 46 46 NNW 8 13 29.87 1011 10 16.0934 0 0
3:55 pm 15:55 Partly Cloudy 88 31 64 18 46 46 NW 13 20 29.87 1011 10 16.0934 0 0
4:15 pm 16:15 Sunny 88 31 64 18 46 46 NW 12 19 29.87 1011 10 16.0934 0 0
4:35 pm 16:35 Sunny 88 31 64 18 46 46 N 10 17 29.87 1011 10 16.0934 0 0
4:55 pm 16:55 Sunny 88 31 63 17 43 43 NNW 8 13 29.86 1011 10 16.0934 0 0
5:15 pm 17:15 Sunny 88 31 61 16 40 40 NW 8 13 29.86 1011 10 16.0934 0 0
5:35 pm 17:35 Sunny 88 31 61 16 40 40 N 8 13 29.86 1011 10 16.0934 0 0
5:55 pm 17:55 Sunny 88 31 61 16 40 40 N 8 13 29.86 1011 10 16.0934 0 0
6:15 pm 18:15 Sunny 88 31 61 16 40 40 NNW 9 15 29.86 1011 10 16.0934 0 0
6:35 pm 18:35 Sunny 88 31 61 16 40 40 NNW 7 11 29.86 1011 10 16.0934 0 0
6:55 pm 18:55 Sunny 86 30 63 17 46 46 NNW 7 11 29.86 1011 10 16.0934 0 0
7:15 pm 19:15 Sunny 86 30 63 17 46 46 WNW 6 9 29.86 1011 10 16.0934 0 0
7:35 pm 19:35 Sunny 84 29 63 17 48 48 NNW 7 11 29.86 1011 10 16.0934 0 0
7:55 pm 19:55 Sunny 84 29 64 18 51 51 NNW 3 6 29.86 1011 10 16.0934 0 0
8:15 pm 20:15 Sunny 82 28 63 17 51 51 NW 3 6 29.86 1011 10 16.0934 0 0
8:35 pm 20:35 Sunny 81 27 64 18 58 58 Calm 29.87 1012 10 16.0934 0 0
8:55 pm 20:55 Clear 81 27 64 18 58 58 Calm 29.87 1012 10 16.0934 0 0
9:15 pm 21:15 Clear 79 26 64 18 61 61 Calm 29.88 1012 10 16.0934 0 0
9:35 pm 21:35 Clear 77 25 66 19 69 69 Calm 29.89 1012 10 16.0934 0 0
9:55 pm 21:55 Clear 73 23 68 20 83 83 Calm 29.9 1012 10 16.0934 0 0
10:15 pm 22:15 Clear 73 23 68 20 83 83 WNW 3 6 29.91 1013 10 16.0934 0 0
10:35 pm 22:35 Clear 73 23 68 20 83 83 Calm 29.91 1013 10 16.0934 0 0
10:55 pm 22:55 Clear 72 22 68 20 88 88 Calm 29.91 1013 10 16.0934 0 0
11:15 pm 23:15 Clear 73 23 64 18 74 74 Calm 29.91 1013 10 16.0934 0 0
11:35 pm 23:35 Clear 72 22 64 18 78 78 W 5 7 29.91 1013 10 16.0934 0 0
11:55 pm 23:55 Clear 72 22 64 18 78 78 WSW 3 6 29.91 1013 10 16.0934 0 0

Powered by AerisWeather